Moody AFB, GA

3:42 PM EST on February 20, 2017 (GMT -0500)
Moody Air Force Base

Weather History for KVAD - September, 2013

Change the Weather History Date:

Tuesday, September 17, 2013

  Actual Average Record
Temperature  
Mean Temperature 80 °F -  
Max Temperature 89 °F 84 °F 96 °F (2005)
Min Temperature 72 °F 67 °F 57 °F (2001)
Cooling Degree Days 16    
Growing Degree Days 30 (Base 50)    
Moisture  
Dew Point 73 °F    
Average Humidity 83    
Maximum Humidity 100    
Minimum Humidity 57    
Precipitation  
Precipitation 0.00 in - - ()
Sea Level Pressure  
Sea Level Pressure 30.08 in    
Wind  
Wind Speed 6 mph (NE)    
Max Wind Speed 13 mph    
Max Gust Speed 21 mph    
Visibility 10 miles    
Events Rain    
Averages and records for this station are not official NWS values.
T = Trace of Precipitation, MM = Missing Value Source: NWS Daily Summary

Daily Weather History Graph

Daily Weather History Graph

Search for Another Location

Airport or City:

Trip Planner

Search our weather history database for the weather conditions in past years. The results will help you decide how hot, cold, wet, or windy it might be!

Date:

Astronomy

Sep. 17, 2013 Rise Set
Actual Time 7:18 AM EDT 7:35 PM EDT
Civil Twilight 6:54 AM EDT 7:59 PM EDT
Nautical Twilight 6:25 AM EDT 8:27 PM EDT
Astronomical Twilight 5:57 AM EDT 8:56 PM EDT
Moon 6:18 PM EDT (9/17) 5:17 AM EDT (9/17)
Length of Visible Light 13h 05m
Length of Day
12h 17m
Waxing Gibbous, 96% of the Moon is Illuminated
Sep 17
Waxing Gibbous
Sep 19
Full
Sep 26
Last Quarter
Oct 4
New
Oct 11
First Quarter

Hourly Weather History & Observations

Time (EDT) Temp. Heat Index Dew Point Humidity Pressure Visibility Wind Dir Wind Speed Gust Speed Precip Events Conditions
12:58 AM 74.5 °F - 74.1 °F 99% 30.06 in 10.0 mi North 2.3 mph - N/A   Clear
1:58 AM 74.7 °F - 74.1 °F 98% 30.06 in 10.0 mi North 4.6 mph - N/A   Scattered Clouds
2:58 AM 75.0 °F - 73.8 °F 96% 30.05 in 10.0 mi NE 1.2 mph - N/A   Mostly Cloudy
3:58 AM 74.1 °F - 73.8 °F 99% 30.05 in 10.0 mi ENE 2.3 mph - N/A   Mostly Cloudy
4:58 AM 72.9 °F - 72.7 °F 99% 30.05 in 10.0 mi ENE 1.2 mph - N/A   Clear
5:58 AM 73.2 °F - 73.2 °F 100% 30.05 in 10.0 mi East 4.6 mph - N/A   Clear
6:58 AM 73.0 °F - 73.0 °F 100% 30.07 in 10.0 mi NE 4.6 mph - N/A   Clear
7:58 AM 72.9 °F - 72.9 °F 100% 30.08 in 10.0 mi ENE 5.8 mph - N/A   Clear
8:58 AM 75.0 °F - 74.7 °F 99% 30.10 in 10.0 mi ENE 4.6 mph - N/A   Clear
9:58 AM 79.7 °F - 75.2 °F 86% 30.11 in 10.0 mi NNE 5.8 mph - N/A   Clear
10:58 AM 83.1 °F 90.1 °F 74.3 °F 75% 30.13 in 10.0 mi ENE 8.1 mph - N/A   Scattered Clouds
11:58 AM 84.4 °F 91.3 °F 73.8 °F 70% 30.13 in 10.0 mi East 8.1 mph - N/A   Scattered Clouds
12:58 PM 86.5 °F 92.9 °F 72.3 °F 62% 30.11 in 10.0 mi ENE 8.1 mph - N/A   Scattered Clouds
1:58 PM 88.7 °F 96.7 °F 73.0 °F 60% 30.08 in 10.0 mi NNE 10.4 mph - N/A   Scattered Clouds
2:58 PM 89.1 °F 96.0 °F 71.8 °F 57% 30.06 in 10.0 mi NE 12.7 mph - N/A   Scattered Clouds
3:58 PM 87.4 °F 93.5 °F 71.6 °F 59% 30.04 in 10.0 mi ENE 8.1 mph - N/A   Scattered Clouds
4:58 PM 86.0 °F 91.5 °F 71.1 °F 61% 30.03 in 10.0 mi ENE 10.4 mph - N/A   Partly Cloudy
5:29 PM 84.2 °F 89.6 °F 71.6 °F 66% 30.04 in 10.0 mi ENE 10.4 mph 20.7 mph N/A Rain Light Rain
5:39 PM 82.4 °F 87.2 °F 71.6 °F 70% 30.03 in 10.0 mi East 8.1 mph - N/A   Mostly Cloudy
5:58 PM 82.6 °F 87.8 °F 72.1 °F 71% 30.04 in 10.0 mi ENE 6.9 mph - 0.00 in   Partly Cloudy
6:58 PM 79.3 °F - 71.1 °F 76% 30.06 in 10.0 mi ENE 11.5 mph - N/A   Clear
7:58 PM 76.3 °F - 71.2 °F 84% 30.09 in 10.0 mi ENE 9.2 mph - N/A   Partly Cloudy
8:58 PM 74.8 °F - 71.8 °F 90% 30.09 in 10.0 mi ENE 5.8 mph - N/A   Mostly Cloudy
9:58 PM 74.8 °F - 71.8 °F 90% 30.11 in 10.0 mi NE 9.2 mph - N/A   Scattered Clouds
10:58 PM 73.9 °F - 71.1 °F 91% 30.11 in 10.0 mi NE 10.4 mph - N/A   Clear
11:02 PM 73.4 °F - 71.6 °F 94% 30.11 in 10.0 mi NE 9.2 mph - N/A Rain Light Rain
11:10 PM 73.4 °F - 71.6 °F 94% 30.11 in 10.0 mi ENE 10.4 mph - N/A   Clear
11:58 PM 73.2 °F - 70.5 °F 91% 30.11 in 10.0 mi NE 8.1 mph - 0.00 in   Clear